Location: Cella
(44.7333°N, 10.5667°E)
Time: 08:28:24
(UTC+00:00)

Cosmos 1777 Rocket - Pass Details

Date: 24 June 2021
Orbit: 757 x 776 km, 74.0° (Epoch: 28 July)

Event Time Altitude Azimuth Distance (km) Brightness Sun altitude
Rises 22:26:56 0° 333° (NNW) 3,263 8.7 -20.8°
Reaches altitude 10° 22:29:24 10° 327° (NNW) 2,332 7.5 -20.9°
Maximum altitude 22:34:25 45° 256° (WSW) 1,056 4.6 -21.1°
Enters shadow 22:35:58 35° 214° (SW) 1,234 4.7 -21.1°
